RADUGA 28 [-]

Last updated on July 6, 2021, 3:35 p.m. UTC

1 21821U 91087A   21186.51473656  .00000035  00000-0  00000-0 0  9992
2 21821  14.6573 355.1035 0008569  97.0010  73.2769  1.00352847108192
UTC
Height (km)
Latitude
Longitude
Inclination
Orbital Period
UTC large
Height (km)
Speed (km/s)
/
Latitude / Longitude
Inclination (degrees)
Orbital Period (minutes)
Azimuth
Elevation
Range (km)
Doppler Factor
iOS Compass Heading
iOS Angle